Location: N�rnberg
(49.4471°N, 11.0632°E)
Time: 18:13:34
(UTC+01:00)

Envisat - Pass Details

Date: 24 February 2026
Orbit: 761 x 763 km, 98.4° (Epoch: 6 March)

Event Time Altitude Azimuth Distance (km) Brightness Sun altitude
Rises 04:08:15 0° 7° (N) 3,236 6.6 -29.7°
Reaches altitude 10° 04:10:47 10° 357° (N) 2,306 5.7 -29.3°
Enters shadow 04:12:18 18° 346° (NNW) 1,818 5.0 -29.0°
